Claxton, GA

3:43 PM EST on February 19, 2018 (GMT -0500)
Claxton-Evans County

Weather History for KCWV - March, 2013

Change the Weather History Date:

Wednesday, March 20, 2013

  Actual Average (KLHW) Record (KLHW)
Temperature  
Mean Temperature 54 °F -  
Max Temperature 68 °F 76 °F 89 °F (1982)
Min Temperature 41 °F 49 °F 35 °F (1981)
Degree Days  
Heating Degree Days 10    
Growing Degree Days 4 (Base 50)    
Moisture  
Dew Point 38 °F    
Average Humidity 62    
Maximum Humidity 100    
Minimum Humidity 24    
Precipitation  
Precipitation 0.00 in - - ()
Sea Level Pressure  
Sea Level Pressure 29.99 in    
Wind  
Wind Speed 2 mph (NNE)    
Max Wind Speed 12 mph    
Max Gust Speed -    
Visibility 10 miles    
Events      
Averages and records for this station are not official NWS values.
T = Trace of Precipitation, MM = Missing Value Source: NWS Daily Summary

Daily Weather History Graph

Daily Weather History Graph

Search for Another Location

Airport or City:

Trip Planner

Search our weather history database for the weather conditions in past years. The results will help you decide how hot, cold, wet, or windy it might be!

Date:

Astronomy

Mar. 20, 2013 Rise Set
Actual Time 7:30 AM EDT 7:39 PM EDT
Civil Twilight 7:06 AM EDT 8:03 PM EDT
Nautical Twilight 6:38 AM EDT 8:32 PM EDT
Astronomical Twilight 6:09 AM EDT 9:01 PM EDT
Moon 1:31 PM EDT (3/20) 2:51 AM EDT (3/20)
Length of Visible Light 12h 57m
Length of Day
12h 08m
First Quarter, 59% of the Moon is Illuminated
Mar 20
First Quarter
Mar 27
Full
Apr 3
Last Quarter
Apr 10
New
Apr 18
First Quarter

Hourly Weather History & Observations

Time (EDT) Temp. Windchill Dew Point Humidity Pressure Visibility Wind Dir Wind Speed Gust Speed Precip Events Conditions
12:15 AM 51.8 °F - 44.6 °F 76% 30.02 in 10.0 mi Calm Calm - N/A   Clear
12:35 AM 50.0 °F - 44.6 °F 82% 30.02 in 10.0 mi Calm Calm - N/A   Clear
12:55 AM 50.0 °F - 44.6 °F 82% 30.02 in 10.0 mi Calm Calm - N/A   Clear
1:15 AM 50.0 °F - 44.6 °F 82% 30.02 in 10.0 mi Calm Calm - N/A   Clear
1:35 AM 50.0 °F - 46.4 °F 87% 30.02 in 10.0 mi Calm Calm - N/A   Clear
1:55 AM 50.0 °F - 44.6 °F 82% 30.02 in 7.0 mi Calm Calm - N/A   Clear
2:15 AM 50.0 °F - 46.4 °F 87% 30.03 in 10.0 mi Calm Calm - N/A   Clear
2:35 AM 50.0 °F - 46.4 °F 87% 30.02 in 10.0 mi Calm Calm - N/A   Clear
2:55 AM 50.0 °F - 44.6 °F 82% 30.02 in 10.0 mi Calm Calm - N/A   Clear
3:15 AM 48.2 °F - 44.6 °F 87% 30.01 in 10.0 mi Calm Calm - N/A   Clear
3:35 AM 48.2 °F - 44.6 °F 87% 30.01 in 10.0 mi Calm Calm - N/A   Clear
3:55 AM 46.4 °F - 44.6 °F 93% 30.01 in 10.0 mi Calm Calm - N/A   Clear
4:15 AM 46.4 °F - 44.6 °F 93% 30.00 in 10.0 mi Calm Calm - N/A   Clear
4:35 AM 46.4 °F - 44.6 °F 93% 30.01 in 10.0 mi Calm Calm - N/A   Clear
4:55 AM 46.4 °F - 44.6 °F 93% 30.00 in 10.0 mi Calm Calm - N/A   Clear
5:15 AM 44.6 °F - 42.8 °F 93% 30.01 in 10.0 mi Calm Calm - N/A   Clear
5:35 AM 44.6 °F - 42.8 °F 93% 30.02 in 10.0 mi Calm Calm - N/A   Clear
5:55 AM 44.6 °F - 42.8 °F 93% 30.03 in 10.0 mi Calm Calm - N/A   Clear
6:15 AM 44.6 °F - 42.8 °F 93% 30.05 in 10.0 mi Calm Calm - N/A   Clear
6:35 AM 42.8 °F - 41.0 °F 93% 30.05 in 10.0 mi Calm Calm - N/A   Clear
6:55 AM 42.8 °F - 41.0 °F 93% 30.05 in 10.0 mi Calm Calm - N/A   Clear
7:15 AM 42.8 °F - 41.0 °F 93% 30.06 in 10.0 mi Calm Calm - N/A   Clear
7:35 AM 41.0 °F - 41.0 °F 100% 30.07 in 10.0 mi Calm Calm - N/A   Clear
7:55 AM 41.0 °F - 41.0 °F 100% 30.08 in 10.0 mi Calm Calm - N/A   Clear
8:15 AM 42.8 °F - 42.8 °F 100% 30.10 in 10.0 mi Calm Calm - N/A   Clear
8:35 AM 46.4 °F - 41.0 °F 81% 30.10 in 10.0 mi Calm Calm - N/A   Clear
8:55 AM 51.8 °F - 33.8 °F 50% 30.10 in 10.0 mi NE 4.6 mph - N/A   Scattered Clouds
9:15 AM 53.6 °F - 32.0 °F 44% 30.11 in 10.0 mi NE 4.6 mph - N/A   Scattered Clouds
9:35 AM 55.4 °F - 30.2 °F 38% 30.11 in 10.0 mi ENE 9.2 mph - N/A   Scattered Clouds
9:55 AM 55.4 °F - 30.2 °F 38% 30.11 in 10.0 mi ENE 10.4 mph - N/A   Scattered Clouds
10:15 AM 57.2 °F - 26.6 °F 31% 30.10 in 7.0 mi ENE 10.4 mph - N/A   Scattered Clouds
10:35 AM 59.0 °F - 26.6 °F 29% 30.11 in 10.0 mi ENE 11.5 mph - N/A   Clear
10:55 AM 59.0 °F - 26.6 °F 29% 30.11 in 10.0 mi ENE 9.2 mph - N/A   Clear
11:15 AM 60.8 °F - 28.4 °F 29% 30.09 in 10.0 mi NE 9.2 mph - N/A   Clear
11:55 AM 62.6 °F - 28.4 °F 27% 30.08 in 10.0 mi East 6.9 mph - N/A   Clear
12:15 PM 62.6 °F - 28.4 °F 27% 30.08 in 10.0 mi NNE 4.6 mph - N/A   Scattered Clouds
12:35 PM 62.6 °F - 28.4 °F 27% 30.06 in 10.0 mi NE 3.5 mph - N/A   Clear
12:55 PM 64.4 °F - 28.4 °F 26% 30.05 in 10.0 mi NE 5.8 mph - N/A   Clear
1:15 PM 64.4 °F - 28.4 °F 26% 30.04 in 10.0 mi NE 5.8 mph - N/A   Clear
1:35 PM 64.4 °F - 28.4 °F 26% 30.03 in 10.0 mi NE 4.6 mph - N/A   Clear
1:55 PM 64.4 °F - 28.4 °F 26% 30.02 in 10.0 mi Calm Calm - N/A   Clear
2:15 PM 66.2 °F - 30.2 °F 26% 29.98 in 10.0 mi Calm Calm - N/A   Clear
2:35 PM 68.0 °F - 30.2 °F 24% 29.96 in 10.0 mi East 5.8 mph - N/A   Clear
2:55 PM 68.0 °F - 30.2 °F 24% 29.95 in 10.0 mi Calm Calm - N/A   Clear
3:15 PM 68.0 °F - 30.2 °F 24% 29.93 in 10.0 mi NW 3.5 mph - N/A   Scattered Clouds
3:35 PM 68.0 °F - 30.2 °F 24% 29.93 in 10.0 mi Calm Calm - N/A   Clear
3:55 PM 68.0 °F - 32.0 °F 26% 29.92 in 10.0 mi NNW 5.8 mph - N/A   Scattered Clouds
4:15 PM 66.2 °F - 32.0 °F 28% 29.92 in 10.0 mi North 4.6 mph - N/A   Scattered Clouds
4:35 PM 64.4 °F - 32.0 °F 30% 29.93 in 10.0 mi NW 6.9 mph - N/A   Mostly Cloudy
4:55 PM 64.4 °F - 32.0 °F 30% 29.93 in 10.0 mi North 8.1 mph - N/A   Mostly Cloudy
5:15 PM 64.4 °F - 32.0 °F 30% 29.93 in 10.0 mi NNW 9.2 mph - N/A   Scattered Clouds
5:35 PM 62.6 °F - 32.0 °F 32% 29.93 in 10.0 mi NNW 5.8 mph - N/A   Clear
5:55 PM 62.6 °F - 30.2 °F 30% 29.91 in 10.0 mi NNW 5.8 mph - N/A   Clear
6:15 PM 62.6 °F - 32.0 °F 32% 29.90 in 10.0 mi North 3.5 mph - N/A   Clear
6:35 PM 62.6 °F - 32.0 °F 32% 29.91 in 10.0 mi Calm Calm - N/A   Clear
6:55 PM 59.0 °F - 41.0 °F 51% 29.90 in 10.0 mi Calm Calm - N/A   Clear
7:15 PM 59.0 °F - 41.0 °F 51% 29.90 in 10.0 mi Calm Calm - N/A   Clear
7:35 PM 55.4 °F - 42.8 °F 63% 29.89 in 10.0 mi Calm Calm - N/A   Clear
7:55 PM 55.4 °F - 42.8 °F 63% 29.89 in 10.0 mi Calm Calm - N/A   Clear
8:15 PM 53.6 °F - 44.6 °F 72% 29.89 in 10.0 mi Calm Calm - N/A   Clear
8:35 PM 51.8 °F - 42.8 °F 71% 29.89 in 10.0 mi Calm Calm - N/A   Clear
8:55 PM 50.0 °F - 42.8 °F 76% 29.89 in 10.0 mi Calm Calm - N/A   Clear
9:15 PM 48.2 °F - 42.8 °F 82% 29.90 in 10.0 mi Calm Calm - N/A   Clear
9:35 PM 46.4 °F - 42.8 °F 87% 29.90 in 10.0 mi Calm Calm - N/A   Clear
9:55 PM 46.4 °F - 42.8 °F 87% 29.90 in 10.0 mi Calm Calm - N/A   Clear
10:15 PM 44.6 °F - 42.8 °F 93% 29.90 in 10.0 mi Calm Calm - N/A   Clear
10:35 PM 44.6 °F - 42.8 °F 93% 29.89 in 10.0 mi Calm Calm - N/A   Clear
10:55 PM 44.6 °F 41.4 °F 42.8 °F 93% 29.89 in 10.0 mi West 5.8 mph - N/A   Clear
11:15 PM 44.6 °F 43.1 °F 41.0 °F 87% 29.89 in 10.0 mi West 3.5 mph - N/A   Clear
11:35 PM 44.6 °F 41.4 °F 41.0 °F 87% 29.89 in 10.0 mi West 5.8 mph - N/A   Clear
11:55 PM 46.4 °F 43.5 °F 41.0 °F 81% 29.89 in 10.0 mi West 5.8 mph - N/A   Clear